Flag Weather past 2 weeks in Mount Pearl, Newfoundland and Labrador, Canada

Now
41 °F

Passing clouds.


Feels Like: 33 °F
Forecast: N/A
Wind: 15 mph from West

Location: St. John's

Current Time: Nov 26, 2014 at 5:16:47 PM

Latest Report: Nov 26, 2014 at 4:30 PM


Visibility: 15 mi

Pressure: 30.04 "Hg

Humidity: 76%

Dew point: 34 °F

Location of Mount PearlLocation

Historic Weather in Mount Pearl — Graph

°F

Mount Pearl temperature yesterday

Maximum temperature yesterday: 57 °F (at 9:30 AM)
Minimum temperature yesterday: 36 °F (at 12:30 AM)
Average temperature yesterday: 49 °F

Past Weeks' High & Low Weather Summary

 TemperatureHumidityPressure
High61 °F (Nov 18, 1:30 PM)100% (Nov 12, 4:30 PM)30.42 "Hg (Nov 12, 4:30 PM)
Low25 °F (Nov 22, 6:30 AM)38% (Nov 11, 10:30 PM)29.32 "Hg (Nov 15, 6:30 AM)
Average37 °F78%29.88 "Hg
* Reported Nov 11 3:30 PM — Nov 26 3:30 PM, Mount Pearl, Weather by CustomWeather, © 2014

Note: Actual official high and low records may vary slightly from our data, if they occured in-between our weather recording intervals... More about our weather records

Advertising

Mount Pearl weather history for previous 24 hours

 ConditionsComfort  
Time TempWeatherWind HumidityBarometerVisibility
3:30 PM
Nov 26
41 °FPartly sunny.20 mph76%30.01 "Hg15 mi
2:30 PM43 °FOvercast.20 mph71%29.98 "Hg15 mi
1:30 PM43 °FOvercast.24 mph66%29.94 "Hg15 mi
12:30 PM43 °FOvercast.24 mph66%29.93 "Hg15 mi
11:30 AM43 °FPartly sunny.22 mph71%29.92 "Hg15 mi
10:30 AM43 °FMostly cloudy.26 mph71%29.90 "Hg15 mi
9:30 AM43 °FBroken clouds.31 mph71%29.85 "Hg15 mi
8:30 AM43 °FPartly sunny.29 mph76%29.83 "Hg15 mi
7:30 AM43 °FPartly sunny.28 mph81%29.80 "Hg15 mi
6:30 AM45 °FPassing clouds.24 mph87%29.78 "Hg15 mi
5:30 AM45 °FPassing clouds.25 mph87%29.76 "Hg15 mi
4:30 AM45 °FPassing clouds.24 mph100%29.74 "Hg15 mi
4:18 AM45 °FPassing clouds.29 mph100%29.73 "Hg15 mi
3:30 AM46 °FPassing clouds.29 mph93%29.70 "Hg15 mi
2:30 AM46 °FPassing clouds.25 mph93%29.70 "Hg15 mi
1:30 AM46 °FPassing clouds.23 mph93%29.69 "Hg15 mi
12:30 AM48 °FPassing clouds.25 mph94%29.69 "Hg15 mi
11:30 PM
Nov 25
48 °FPassing clouds.22 mph94%29.69 "Hg15 mi
10:30 PM48 °FPassing clouds.26 mph100%29.67 "Hg15 mi
9:30 PM50 °FPassing clouds.22 mph94%29.69 "Hg15 mi
8:30 PM50 °FPassing clouds.30 mph94%29.70 "Hg15 mi
7:30 PM54 °FPassing clouds.32 mph88%29.70 "Hg15 mi
6:30 PM55 °FPassing clouds.30 mph94%29.70 "Hg15 mi
5:30 PM54 °FPassing clouds.29 mph94%29.70 "Hg15 mi
Weather by CustomWeather, © 2014

See weather overviewHow to use our weather pages